Вернуться в каталог

THORAD AGENA D DEB

АктивенPO
NORAD 4912·DEBRIS·🇺🇸 United States

Запущен Apr 8, 1970 с Vandenberg Space Force Base

Loading…

Ближайшие Пролёты (ближайшие 24 часа)

TLE

СвежийSource: Space-Track

Эпоха: Sep 14, 2026, 07:44 UTC

1 04912U 70025FJ  26257.32251240  .00001852  00000-0  77819-3 0  9992
2 04912  99.7285  28.5236 0035755  54.6523 305.7987 14.26955624866805

Отслеживайте THORAD AGENA D DEB в реальном времени с AllMySat

Download on the App Store